User: anonymous   Login
Location: Unspecified
(0.0000°N, 0.0000°E)
Time: 11:23:21
(UTC+02:00)
Language:

Cosmos 1315 Rocket - Orbit

View from above orbital plane
View from above orbital plane
View from above satellite
View from above satellite

Ground track
Ground track

The orbit data is extracted from the following two-line orbital elements,

1 12904U 81103B   17083.95515911 +.00000574 +00000-0 +38283-4 0  9998
2 12904 081.1803 011.7603 0028232 344.5007 015.5348 15.05222448479938
Epoch (UTC): 24 March 2017 22:55:25
Eccentricity: 0.0028232
inclination: 81.1803°
perigee height: 531 km
apogee height: 570 km
right ascension of ascending node: 11.7603°
argument of perigee: 344.5007°
revolutions per day: 15.05222448
mean anomaly at epoch: 15.5348°
orbit number at epoch: 47993

The dashed part of the orbit path shows where the satellite is in the earth's shadow,  

DLR